Location: Marshall
(39.8477°N, 87.1868°W)
Time: 04:38:17
(UTC+00:00)

HTV-X1 - Pass Details

Date: 23 May 2026
Orbit: 368 x 378 km, 51.6° (Epoch: 26 May)

Event Time Altitude Azimuth Distance (km) Brightness Sun altitude
Rises 02:58:41 0° 311° (NW) 2,218 ? -18.2°
Reaches altitude 10° 03:00:46 10° 317° (NW) 1,367 ? -18.4°
Maximum altitude 03:03:45 48° 34° (NNE) 496 ? -18.8°
Enters shadow 03:03:58 46° 50° (NE) 505 ? -18.8°
